Weather Roundup
Issued by NWS

Home | Current Version | Previous Version | Graphics & Text | Print | Product List | Glossary Off
Versions: 1 2 3 4 5 6 7 8 9 10 11 12 13 14 15 16 17 18 19 20 21 22 23 24 25 26 27 28 29 30 31 32 33 34 35 36 37 38 39 40 41 42 43 44 45 46 47 48 49 50

000
NZUS93 KARX 310310
HRRWXR

CURRENT HOURLY OBSERVATIONS ACROSS
MUCH OF THE UPPER MISSISSIPPI VALLEY
NATIONAL WEATHER SERVICE LA CROSSE WI
1000 PM CDT SAT AUG 30 2014


...SOUTHEAST MINNESOTA...


CITY           SKY/WX    TMP DP  RH WIND       PRES   REMARKS
ROCHESTER      CLEAR     65  62  90 SE5       29.90S
ROCHESTER/MAYO MOCLDY    67  62  83 E3        29.90S
WINONA         CLOUDY    70  64  83 CALM      29.89S
AUSTIN         CLEAR     64  63  94 CALM      29.89S
ALBERT LEA     CLEAR     64  64 100 CALM      29.89S FOG
DODGE CENTER   MOCLDY    68  66  94 E3        29.90S
PRESTON        PTCLDY    65  66 100 CALM      29.91R
OWATONNA       CLEAR     64  63  94 CALM      29.89S
FARIBAULT      MOCLDY    68  63  83 CALM      29.89S
$$

...ELSEWHERE IN MINNESOTA...


CITY           SKY/WX    TMP DP  RH WIND       PRES   REMARKS
MINNEAPOLIS    MOCLDY    68  62  81 SE7       29.88R
INTNL FALLS    CLEAR     54  52  93 CALM      29.87S
DULUTH         CLOUDY    61  58  90 SE10      29.91S FOG
RED WING       PTCLDY    64  61  88 CALM      29.88R
REDWOOD FALLS  CLEAR     63  61  93 E6        29.85F
MANKATO        CLEAR     66  61  82 CALM      29.88S
WORTHINGTON    CLEAR     64  61  88 S5        29.88F
FAIRMONT       CLEAR     63  57  82 E3        29.88S
$$

...SOUTHWEST WISCONSIN...


CITY           SKY/WX    TMP DP  RH WIND       PRES   REMARKS
LA CROSSE      MOCLDY    68  64  87 N3        29.88R
PRAIRIE DU CHI PTCLDY    69  65  87 CALM      29.88R
BOSCOBEL       LGT RAIN  71  68  90 W3        29.89R
LONE ROCK      MOCLDY    72  66  81 CALM      29.88R
PLATTEVILLE    CLEAR     68  65  90 CALM      29.91R
FORT MC COY    CLOUDY    65  61  85 CALM      29.90S
CAMP DOUGLAS   CLOUDY    65  65 100 W2        29.90R
VIROQUA        FAIR      65  65 100 E3        29.91R
WIS DELLS      CLOUDY    70  64  82 NW3       29.90R
$$

...ELSEWHERE IN WISCONSIN...


CITY           SKY/WX    TMP DP  RH WIND       PRES   REMARKS
MILWAUKEE      PTCLDY    73  67  81 W6        29.88R
MADISON        PTCLDY    69  66  90 CALM      29.88S
GREEN BAY      CLOUDY    68  65  90 N5        29.88R
EAU CLAIRE     CLEAR     61  60  97 N3        29.89S
BLACK RVR FLS  FAIR      61  61  99 CALM      29.89S
MEDFORD        PTCLDY    58  56  94 N3        29.92R
WAUSAU         CLOUDY    64  59  83 N3        29.89S
WIS RAPIDS     CLOUDY    66  62  87 NW3       29.91R
MARSHFIELD     CLOUDY    65  60  84 CALM      29.90S
RICE LAKE      CLEAR     60  58  94 N3        29.92S
$$

...NORTHEAST IOWA...


CITY           SKY/WX    TMP DP  RH WIND       PRES   REMARKS
WATERLOO       CLEAR     66  63  90 CALM      29.89R
DUBUQUE        CLEAR     65  64  97 SW3       29.91R
DECORAH        LGT RAIN  70  68  94 CALM      29.89R
MASON CITY     CLEAR     64  63  96 CALM      29.91R
CHARLES CITY   CLEAR     66  64  94 CALM      29.90S
OELWEIN        CLEAR     66  64  94 SW5       29.91R
$$

...ELSEWHERE IN IOWA...


CITY           SKY/WX    TMP DP  RH WIND       PRES   REMARKS
DES MOINES     CLEAR     72  66  81 SE3       29.89R
IOWA CITY      CLEAR     68  66  93 CALM      29.90S
FORT DODGE     CLEAR     63  59  88 CALM      29.90S
MARSHALLTOWN   CLEAR     67  66  97 S5        29.89S
CEDAR RAPIDS   CLEAR     69  68  96 S3        29.90R
$$

...NORTHERN ILLINOIS...


CITY           SKY/WX    TMP DP  RH WIND       PRES   REMARKS
CHICAGO-OHARE  PTCLDY    74  64  71 W5        29.90R
DUPAGE         CLEAR     72  66  81 SW6       29.91R
CHICAGO-MIDWAY MOCLDY    78  68  71 SW5       29.90R
MOLINE         CLEAR     71  68  90 NW3       29.90R
ROCKFORD       CLEAR     69  65  86 CALM      29.91R
STERLING       CLEAR     66  63  88 CALM      29.91S
PEORIA         PTCLDY    76  71  85 CALM      29.91S
$$

NOTE: "FAIR" INDICATES FEW OR NO CLOUDS BELOW 12,000 FEET WITH NO
SIGNIFICANT WEATHER AND/OR OBSTRUCTIONS TO VISIBILITY. WIND
SPEEDS ARE IN MILES-PER-HOUR.



USA.gov is the U.S. government's official web portal to all federal, state and local government web resources and services.